Tracking 19219 objects as of 20-Jul-2018
HD Live streaming from Space Station
objects crossing your sky now

ESA/GOES

Track ESA/GOES now!
ESA/GOES is classified as:


NORAD ID: 9931
Int'l Code: 1977-029A
Perigee: 2,908.0 km
Apogee: 38,259.7 km
Inclination: 26.6 °
Period: 734.0 minutes
Semi major axis: 26954 km
RCS: 4.0849 m2 (large)
Launch date: April 20, 1977
Source: European Space Agency (ESA)
Launch site: AIR FORCE EASTERN TEST RANGE (AFETR)
aabbcc
Your satellite tracking list
Your tracking list is empty




NASA's NSSDC Master Catalog

Two Line Element Set (TLE):
1 09931U 77029A   18200.18231663  .00000059  00000-0  00000+0 0  9991
2 09931  26.5846 214.5652 6557570 149.2458 275.5147  1.96176719295169
Source of the keplerian elements: AFSPC